Location: Carnières
(50.1682°N, 3.3474°E)
Time: 21:22:07
(UTC+00:00)

SL-16 R/B - Pass Details

Date: 06 August 2024
Orbit: 842 x 845 km, 71.0° (Epoch: 10 September)

Event Time Altitude Azimuth Distance (km) Brightness Sun altitude
Exits shadow 03:35:44 - 273° (W) 3,381 4.9 -7.2°
Reaches altitude 10° 03:39:15 10° 296° (WNW) 2,471 4.4 -6.8°
Maximum altitude 03:42:28 15° 331° (NNW) 2,129 4.4 -6.4°
Drops below altitude 10° 03:45:41 10° 6° (N) 2,477 5.3 -6.0°
Sets 03:49:19 0° 29° (NNE) 3,416 6.7 -5.5°
